When you browse on this site, cookies collect data to enhance your experience and personalize the content and advertising you see.
Visit our Privacy Policy to learn more. By continuing to use the site, you agree to this use of cookies and data.
  • în România
  • Lista ţărilor
  • Pe 7 zile
  • Temperatura apei
  • Hartă satelitară
  • Meteo pe hartă
  • Widget-uri
  • user-avatar
    Intrare

    Meteo pe oră la Luce

    Astăzi, 20 Aprilie, Sâmbătă

    Timp Temperatura Precipitaţii Vânt Presiune Umiditate
    00:00 +13°C° 0 mm 3 m/s 755 mmHg 82%
    01:00 +12°C° 0 mm 3 m/s 755 mmHg 84%
    02:00 +12°C° 0 mm 3 m/s 755 mmHg 87%
    03:00 +12°C° 0 mm 2 m/s 755 mmHg 89%
    04:00 +11°C° 0 mm 3 m/s 755 mmHg 89%
    05:00 +12°C° 0 mm 3 m/s 755 mmHg 89%
    06:00 +12°C° 0 mm 3 m/s 755 mmHg 87%
    07:00 +14°C° 0 mm 3 m/s 755 mmHg 82%
    08:00 +17°C° 0 mm 3 m/s 755 mmHg 77%
    09:00 +19°C° 0 mm 4 m/s 755 mmHg 72%
    10:00 +20°C° 0 mm 4 m/s 755 mmHg 64%
    11:00 +22°C° 0 mm 5 m/s 755 mmHg 56%
    12:00 +23°C° 0 mm 5 m/s 755 mmHg 49%
    13:00 +23°C° 0 mm 5 m/s 755 mmHg 48%
    14:00 +23°C° 0 mm 5 m/s 755 mmHg 47%
    15:00 +23°C° 0 mm 5 m/s 754 mmHg 47%
    16:00 +22°C° 0 mm 4 m/s 754 mmHg 53%
    17:00 +20°C° 0 mm 4 m/s 754 mmHg 60%
    18:00 +19°C° 0 mm 3 m/s 753 mmHg 67%
    19:00 +18°C° 0 mm 3 m/s 753 mmHg 68%
    20:00 +16°C° 0 mm 3 m/s 754 mmHg 69%
    21:00 +15°C° 0 mm 2 m/s 754 mmHg 70%
    22:00 +13°C° 0 mm 3 m/s 754 mmHg 74%
    23:00 +13°C° 0 mm 3 m/s 753 mmHg 77%

    Mâine, 21 Aprilie, Duminică

    Timp Temperatura Precipitaţii Vânt Presiune Umiditate
    00:00 +13°C° 0 mm 3 m/s 753 mmHg 81%
    01:00 +12°C° 0 mm 3 m/s 753 mmHg 83%
    02:00 +12°C° 0 mm 3 m/s 752 mmHg 85%
    03:00 +11°C° 0 mm 3 m/s 752 mmHg 88%
    04:00 +11°C° 0 mm 3 m/s 752 mmHg 86%
    05:00 +11°C° 0 mm 3 m/s 751 mmHg 85%
    06:00 +11°C° 0 mm 3 m/s 751 mmHg 84%
    07:00 +13°C° 0 mm 3 m/s 751 mmHg 77%
    08:00 +16°C° 0 mm 3 m/s 751 mmHg 69%
    09:00 +18°C° 0 mm 3 m/s 751 mmHg 62%
    10:00 +19°C° 0 mm 4 m/s 750 mmHg 56%
    11:00 +21°C° 0 mm 4 m/s 750 mmHg 50%
    12:00 +22°C° 0 mm 4 m/s 749 mmHg 44%
    13:00 +22°C° 0 mm 4 m/s 749 mmHg 44%
    14:00 +22°C° 0 mm 4 m/s 748 mmHg 44%
    15:00 +22°C° 0 mm 3 m/s 748 mmHg 44%
    16:00 +21°C° 0 mm 3 m/s 747 mmHg 51%
    17:00 +20°C° 0 mm 3 m/s 747 mmHg 58%
    18:00 +19°C° 0 mm 2 m/s 746 mmHg 64%
    19:00 +17°C° 0 mm 2 m/s 746 mmHg 66%
    20:00 +16°C° 0 mm 2 m/s 746 mmHg 68%
    21:00 +14°C° 0 mm 2 m/s 746 mmHg 70%
    22:00 +14°C° 0 mm 2 m/s 746 mmHg 71%
    23:00 +13°C° 0 mm 2 m/s 745 mmHg 73%

    Poimâine, 22 Aprilie, Luni

    Timp Temperatura Precipitaţii Vânt Presiune Umiditate
    00:00 +13°C° 0 mm 2 m/s 745 mmHg 75%
    01:00 +12°C° 0 mm 2 m/s 744 mmHg 77%
    02:00 +12°C° 0 mm 2 m/s 744 mmHg 79%
    03:00 +12°C° 0 mm 2 m/s 743 mmHg 81%
    04:00 +12°C° 0 mm 2 m/s 743 mmHg 83%
    05:00 +12°C° 0 mm 1 m/s 742 mmHg 85%
    06:00 +12°C° 0 mm 1 m/s 742 mmHg 87%
    07:00 +14°C° 0 mm 1 m/s 742 mmHg 82%
    08:00 +16°C° 0 mm 1 m/s 742 mmHg 77%
    09:00 +19°C° 0 mm 1 m/s 741 mmHg 72%
    10:00 +19°C° 0.1 mm 2 m/s 741 mmHg 67%
    11:00 +20°C° 0.1 mm 2 m/s 740 mmHg 62%
    12:00 +22°C° 0.1 mm 3 m/s 740 mmHg 56%
    13:00 +23°C° 0 mm 2 m/s 739 mmHg 55%
    14:00 +23°C° 0 mm 2 m/s 739 mmHg 54%
    15:00 +23°C° 0 mm 2 m/s 738 mmHg 52%
    16:00 +21°C° 0 mm 2 m/s 738 mmHg 57%
    17:00 +21°C° 0 mm 1 m/s 737 mmHg 62%
    18:00 +20°C° 0 mm 1 m/s 737 mmHg 67%
    19:00 +19°C° 0 mm 1 m/s 737 mmHg 70%
    20:00 +16°C° 0 mm 1 m/s 737 mmHg 72%
    21:00 +15°C° 0 mm 2 m/s 737 mmHg 75%
    22:00 +15°C° 0 mm 1 m/s 736 mmHg 78%
    23:00 +14°C° 0 mm 1 m/s 736 mmHg 81%

    23 Aprilie, Marţi

    Timp Temperatura Precipitaţii Vânt Presiune Umiditate
    00:00 +14°C° 0 mm 1 m/s 736 mmHg 85%
    01:00 +13°C° 0 mm 1 m/s 735 mmHg 86%
    02:00 +13°C° 0 mm 1 m/s 735 mmHg 87%
    03:00 +13°C° 0 mm 1 m/s 735 mmHg 89%
    04:00 +13°C° 0 mm 1 m/s 735 mmHg 89%
    05:00 +13°C° 0 mm 1 m/s 735 mmHg 89%
    06:00 +13°C° 0 mm 1 m/s 734 mmHg 89%
    07:00 +15°C° 0 mm 1 m/s 735 mmHg 83%
    08:00 +18°C° 0 mm 1 m/s 735 mmHg 78%
    09:00 +20°C° 0 mm 1 m/s 735 mmHg 72%
    10:00 +20°C° 0.4 mm 1 m/s 734 mmHg 69%
    11:00 +21°C° 0.4 mm 1 m/s 734 mmHg 65%
    12:00 +22°C° 0.4 mm 1 m/s 734 mmHg 62%
    13:00 +22°C° 0.8 mm 1 m/s 734 mmHg 64%
    14:00 +22°C° 0.8 mm 1 m/s 733 mmHg 65%
    15:00 +21°C° 0.8 mm 1 m/s 733 mmHg 67%
    16:00 +20°C° 0 mm 1 m/s 733 mmHg 72%
    17:00 +19°C° 0 mm 1 m/s 733 mmHg 77%
    18:00 +18°C° 0 mm 1 m/s 733 mmHg 83%
    19:00 +18°C° 0.2 mm 1 m/s 733 mmHg 83%
    20:00 +16°C° 0.2 mm 2 m/s 733 mmHg 84%
    21:00 +15°C° 0.2 mm 2 m/s 733 mmHg 85%
    22:00 +15°C° 0.2 mm 2 m/s 733 mmHg 88%
    23:00 +14°C° 0.2 mm 2 m/s 733 mmHg 91%

    24 Aprilie, Miercuri

    Timp Temperatura Precipitaţii Vânt Presiune Umiditate
    00:00 +14°C° 0.2 mm 2 m/s 733 mmHg 93%
    01:00 +14°C° 0.3 mm 2 m/s 733 mmHg 94%
    02:00 +13°C° 0.3 mm 2 m/s 733 mmHg 95%
    03:00 +12°C° 0.3 mm 3 m/s 733 mmHg 96%
    04:00 +12°C° 1.2 mm 3 m/s 734 mmHg 96%
    05:00 +12°C° 1.2 mm 4 m/s 734 mmHg 95%
    06:00 +10°C° 1.2 mm 5 m/s 734 mmHg 94%
    07:00 +10°C° 0.1 mm 5 m/s 735 mmHg 91%
    08:00 +12°C° 0.1 mm 5 m/s 736 mmHg 88%
    09:00 +12°C° 0.1 mm 5 m/s 737 mmHg 85%
    10:00 +12°C° 0.2 mm 5 m/s 737 mmHg 82%
    11:00 +13°C° 0.2 mm 6 m/s 737 mmHg 78%
    12:00 +12°C° 0.2 mm 7 m/s 737 mmHg 75%
    13:00 +12°C° 0.1 mm 7 m/s 737 mmHg 72%
    14:00 +14°C° 0.1 mm 7 m/s 737 mmHg 69%
    15:00 +14°C° 0.1 mm 7 m/s 737 mmHg 66%
    16:00 +13°C° 0.2 mm 6 m/s 737 mmHg 71%
    17:00 +11°C° 0.2 mm 6 m/s 737 mmHg 75%
    18:00 +10°C° 0.2 mm 5 m/s 737 mmHg 80%
    19:00 +10°C° 0 mm 5 m/s 737 mmHg 78%
    20:00 +10°C° 0 mm 6 m/s 737 mmHg 76%
    21:00 +10°C° 0 mm 6 m/s 737 mmHg 74%
    22:00 +10°C° 0.9 mm 6 m/s 737 mmHg 79%
    23:00 +9°C° 0.9 mm 6 m/s 737 mmHg 84%

    25 Aprilie, Joi

    Timp Temperatura Precipitaţii Vânt Presiune Umiditate
    00:00 +9°C° 0.9 mm 6 m/s 737 mmHg 89%
    01:00 +8°C° 0.5 mm 6 m/s 737 mmHg 90%
    02:00 +8°C° 0.5 mm 6 m/s 738 mmHg 90%
    03:00 +7°C° 0.5 mm 6 m/s 738 mmHg 90%
    04:00 +7°C° 0.1 mm 6 m/s 738 mmHg 90%
    05:00 +7°C° 0.1 mm 6 m/s 738 mmHg 89%
    06:00 +7°C° 0.1 mm 6 m/s 738 mmHg 89%
    07:00 +7°C° 0.4 mm 6 m/s 739 mmHg 89%
    08:00 +8°C° 0.4 mm 6 m/s 739 mmHg 89%
    09:00 +8°C° 0.4 mm 6 m/s 739 mmHg 89%
    10:00 +9°C° 0.3 mm 7 m/s 739 mmHg 84%
    11:00 +10°C° 0.3 mm 8 m/s 740 mmHg 79%
    12:00 +11°C° 0.3 mm 8 m/s 740 mmHg 74%
    13:00 +11°C° 0.2 mm 8 m/s 740 mmHg 71%
    14:00 +12°C° 0.2 mm 8 m/s 740 mmHg 69%
    15:00 +12°C° 0.2 mm 8 m/s 741 mmHg 66%
    16:00 +11°C° 0.2 mm 7 m/s 741 mmHg 71%
    17:00 +10°C° 0.2 mm 6 m/s 741 mmHg 75%
    18:00 +9°C° 0.2 mm 5 m/s 741 mmHg 80%
    19:00 +8°C° 0 mm 5 m/s 742 mmHg 83%
    20:00 +7°C° 0 mm 5 m/s 743 mmHg 86%
    21:00 +6°C° 0 mm 5 m/s 743 mmHg 89%
    22:00 +6°C° 0 mm 5 m/s 744 mmHg 89%
    23:00 +6°C° 0 mm 5 m/s 744 mmHg 89%
    Arată mai mult